C/2018 E1 ( ATLAS )

Japanese version
Home page
Updated on November 19, 2018

---------------------------------------------------------------------

* Profile

Discovery Date March 10, 2018
Magnitude 16.8 mag
Discoverer Asteroid Terrestrial-impact Last Alert System (ATLAS) search program

* Pictures

* Orbital Elements

Epoch 2018 May 2.0 TT = JDT 2458240.5
T 2018 Apr. 17.32332 TT                                 MPCW
q   2.7054401            (2000.0)            P               Q
z  +0.0183546      Peri.  299.47218     -0.26852636     -0.80983449
 +/-0.0000000      Node   146.84067     +0.77844270     +0.13650418
e   0.9503428      Incl.   72.47969     -0.56738043     +0.57055649
From 163 observations 2015 Aug. 11-2018 June 14, mean residual 0".3.

* Finding Charts

* Magnitudes Graph

        m1 = 10.5 + 5 log d + 8.5 log r(t - 50)

---------------------------------------------------------------------

The orbital elements are published on M.P.E.C. 2018-S50.
The charts are made with StellaNavigator Ver.10 (AstroArts).
The magnitudes graphs are made with Comet for Windows.

---------------------------------------------------------------------

Copyright(C) Seiichi Yoshida (comet@aerith.net). All rights reserved.